Location: Endfield
(51.6667°N, 0.0667°W)
Time: 13:09:54
(UTC+00:00)

H-2A R/B - Pass Details

Date: 19 May 2024
Orbit: 514 x 612 km, 98.2° (Epoch: 18 June)

Event Time Altitude Azimuth Distance (km) Brightness Sun altitude
Exits shadow 23:39:03 24° 230° (SW) 1,218 3.7 -18.2°
Maximum altitude 23:40:25 30° 265° (W) 1,072 3.7 -18.2°
Drops below altitude 10° 23:44:08 10° 327° (NNW) 1,943 6.0 -18.2°
Sets 23:46:34 0° 338° (NNW) 2,865 7.3 -18.3°
